When you browse on this site, cookies collect data to enhance your experience and personalize the content and advertising you see.
Visit our Privacy Policy to learn more. By continuing to use the site, you agree to this use of cookies and data.
  • In Hungary
  • List of Countries
  • For 7 days
  • Water Temperature
  • Weather Map
  • News
  • Weather Widgets
  • user-avatar
    Login

    Hourly Weather Yavorivtsi

    Today, 3 April, Friday

    Time Temperature Precipitation Wind Pressure Humidity
    00:00 +3°C° 0 mm 2 mps 727 mmHg 58%
    01:00 +2°C° 0 mm 2 mps 727 mmHg 59%
    02:00 +2°C° 0 mm 2 mps 727 mmHg 60%
    03:00 +2°C° 0 mm 2 mps 726 mmHg 60%
    04:00 +1°C° 0 mm 2 mps 726 mmHg 60%
    05:00 +1°C° 0 mm 2 mps 726 mmHg 60%
    06:00 +2°C° 0 mm 2 mps 726 mmHg 57%
    07:00 +3°C° 0 mm 2 mps 726 mmHg 54%
    08:00 +3°C° 0 mm 3 mps 727 mmHg 51%
    09:00 +5°C° 0 mm 3 mps 726 mmHg 47%
    10:00 +6°C° 0 mm 4 mps 726 mmHg 42%
    11:00 +8°C° 0 mm 4 mps 726 mmHg 37%
    12:00 +9°C° 0 mm 5 mps 726 mmHg 37%
    13:00 +9°C° 0 mm 5 mps 727 mmHg 36%
    14:00 +10°C° 0 mm 5 mps 727 mmHg 36%
    15:00 +10°C° 0 mm 5 mps 727 mmHg 38%
    16:00 +10°C° 0 mm 5 mps 727 mmHg 40%
    17:00 +10°C° 0 mm 5 mps 727 mmHg 42%
    18:00 +10°C° 0 mm 4 mps 727 mmHg 49%
    19:00 +7°C° 0 mm 4 mps 728 mmHg 55%
    20:00 +7°C° 0 mm 3 mps 728 mmHg 62%
    21:00 +5°C° 0 mm 3 mps 729 mmHg 67%
    22:00 +5°C° 0 mm 3 mps 729 mmHg 71%
    23:00 +5°C° 0 mm 2 mps 730 mmHg 76%

    Tomorrow, 4 April, Saturday

    Time Temperature Precipitation Wind Pressure Humidity
    00:00 +5°C° 0 mm 2 mps 731 mmHg 78%
    01:00 +4°C° 0 mm 2 mps 731 mmHg 81%
    02:00 +3°C° 0 mm 2 mps 732 mmHg 84%
    03:00 +3°C° 0 mm 2 mps 732 mmHg 83%
    04:00 +2°C° 0 mm 2 mps 732 mmHg 82%
    05:00 +2°C° 0 mm 2 mps 733 mmHg 81%
    06:00 +3°C° 0 mm 2 mps 733 mmHg 76%
    07:00 +4°C° 0 mm 2 mps 734 mmHg 70%
    08:00 +5°C° 0 mm 2 mps 734 mmHg 65%
    09:00 +6°C° 0 mm 2 mps 735 mmHg 57%
    10:00 +7°C° 0 mm 2 mps 735 mmHg 50%
    11:00 +8°C° 0 mm 2 mps 735 mmHg 42%
    12:00 +9°C° 0 mm 2 mps 735 mmHg 40%
    13:00 +9°C° 0 mm 2 mps 735 mmHg 38%
    14:00 +10°C° 0 mm 3 mps 735 mmHg 36%
    15:00 +10°C° 0 mm 3 mps 735 mmHg 37%
    16:00 +10°C° 0 mm 3 mps 735 mmHg 38%
    17:00 +10°C° 0 mm 3 mps 735 mmHg 39%
    18:00 +9°C° 0 mm 3 mps 736 mmHg 46%
    19:00 +7°C° 0 mm 3 mps 736 mmHg 52%
    20:00 +5°C° 0 mm 3 mps 737 mmHg 59%
    21:00 +4°C° 0 mm 3 mps 737 mmHg 66%
    22:00 +4°C° 0 mm 2 mps 738 mmHg 73%
    23:00 +4°C° 0 mm 2 mps 739 mmHg 81%

    Day after tomorrow, 5 April, Sunday

    Time Temperature Precipitation Wind Pressure Humidity
    00:00 +3°C° 0 mm 2 mps 739 mmHg 84%
    01:00 +2°C° 0 mm 2 mps 739 mmHg 87%
    02:00 +2°C° 0 mm 2 mps 740 mmHg 90%
    03:00 +2°C° 0 mm 2 mps 740 mmHg 88%
    04:00 +1°C° 0 mm 2 mps 740 mmHg 86%
    05:00 +1°C° 0 mm 2 mps 741 mmHg 85%
    06:00 +1°C° 0 mm 3 mps 741 mmHg 77%
    07:00 +2°C° 0 mm 3 mps 742 mmHg 70%
    08:00 +3°C° 0 mm 4 mps 743 mmHg 63%
    09:00 +4°C° 0 mm 4 mps 743 mmHg 56%
    10:00 +5°C° 0 mm 4 mps 744 mmHg 50%
    11:00 +6°C° 0 mm 5 mps 744 mmHg 43%
    12:00 +7°C° 0 mm 5 mps 744 mmHg 39%
    13:00 +7°C° 0 mm 5 mps 744 mmHg 35%
    14:00 +8°C° 0 mm 5 mps 744 mmHg 31%
    15:00 +7°C° 0 mm 4 mps 744 mmHg 32%
    16:00 +7°C° 0 mm 4 mps 744 mmHg 33%
    17:00 +7°C° 0 mm 4 mps 744 mmHg 34%
    18:00 +6°C° 0 mm 4 mps 744 mmHg 39%
    19:00 +4°C° 0 mm 3 mps 745 mmHg 43%
    20:00 +3°C° 0 mm 3 mps 745 mmHg 48%
    21:00 +2°C° 0 mm 3 mps 745 mmHg 50%
    22:00 +2°C° 0 mm 3 mps 746 mmHg 51%
    23:00 +1°C° 0 mm 3 mps 746 mmHg 53%

    6 April, Monday

    Time Temperature Precipitation Wind Pressure Humidity
    00:00 +1°C° 0 mm 3 mps 746 mmHg 54%
    01:00 +1°C° 0 mm 2 mps 746 mmHg 55%
    02:00 +1°C° 0 mm 2 mps 747 mmHg 56%
    03:00 -1°C° 0 mm 2 mps 747 mmHg 57%
    04:00 -1°C° 0 mm 2 mps 747 mmHg 58%
    05:00 -1°C° 0 mm 2 mps 747 mmHg 59%
    06:00 0°C° 0 mm 3 mps 747 mmHg 54%
    07:00 0°C° 0 mm 4 mps 748 mmHg 49%
    08:00 +1°C° 0 mm 4 mps 748 mmHg 44%
    09:00 +4°C° 0 mm 4 mps 748 mmHg 40%
    10:00 +5°C° 0 mm 4 mps 748 mmHg 35%
    11:00 +7°C° 0 mm 4 mps 748 mmHg 31%
    12:00 +8°C° 0 mm 4 mps 748 mmHg 29%
    13:00 +10°C° 0 mm 4 mps 748 mmHg 28%
    14:00 +11°C° 0 mm 4 mps 748 mmHg 26%
    15:00 +11°C° 0 mm 3 mps 748 mmHg 27%
    16:00 +10°C° 0 mm 3 mps 747 mmHg 28%
    17:00 +10°C° 0 mm 3 mps 747 mmHg 29%
    18:00 +9°C° 0 mm 3 mps 747 mmHg 34%
    19:00 +7°C° 0 mm 3 mps 747 mmHg 38%
    20:00 +5°C° 0 mm 3 mps 747 mmHg 42%
    21:00 +4°C° 0 mm 3 mps 747 mmHg 43%
    22:00 +4°C° 0 mm 3 mps 747 mmHg 44%
    23:00 +3°C° 0 mm 3 mps 747 mmHg 45%

    7 April, Tuesday

    Time Temperature Precipitation Wind Pressure Humidity
    00:00 +3°C° 0 mm 3 mps 746 mmHg 46%
    01:00 +2°C° 0 mm 3 mps 746 mmHg 47%
    02:00 +2°C° 0 mm 3 mps 746 mmHg 48%
    03:00 +2°C° 0 mm 3 mps 746 mmHg 48%
    04:00 +1°C° 0 mm 3 mps 746 mmHg 49%
    05:00 +2°C° 0 mm 2 mps 746 mmHg 50%
    06:00 +2°C° 0 mm 3 mps 746 mmHg 47%
    07:00 +4°C° 0 mm 3 mps 746 mmHg 45%
    08:00 +5°C° 0 mm 3 mps 746 mmHg 43%
    09:00 +7°C° 0 mm 4 mps 746 mmHg 39%
    10:00 +10°C° 0 mm 4 mps 746 mmHg 35%
    11:00 +12°C° 0 mm 4 mps 746 mmHg 31%
    12:00 +13°C° 0 mm 4 mps 746 mmHg 28%
    13:00 +14°C° 0 mm 4 mps 746 mmHg 26%
    14:00 +16°C° 0 mm 3 mps 746 mmHg 24%
    15:00 +14°C° 0 mm 3 mps 745 mmHg 25%
    16:00 +14°C° 0 mm 3 mps 745 mmHg 26%
    17:00 +14°C° 0 mm 3 mps 744 mmHg 27%
    18:00 +13°C° 0 mm 3 mps 744 mmHg 31%
    19:00 +12°C° 0 mm 2 mps 744 mmHg 35%
    20:00 +9°C° 0 mm 2 mps 744 mmHg 39%
    21:00 +9°C° 0 mm 2 mps 744 mmHg 41%
    22:00 +8°C° 0 mm 2 mps 744 mmHg 43%
    23:00 +7°C° 0 mm 3 mps 744 mmHg 45%

    8 April, Wednesday

    Time Temperature Precipitation Wind Pressure Humidity
    00:00 +7°C° 0 mm 3 mps 744 mmHg 47%
    01:00 +7°C° 0 mm 3 mps 743 mmHg 50%
    02:00 +5°C° 0 mm 3 mps 743 mmHg 53%
    03:00 +5°C° 0 mm 3 mps 743 mmHg 57%
    04:00 +5°C° 0 mm 3 mps 743 mmHg 61%
    05:00 +4°C° 0 mm 3 mps 743 mmHg 65%
    06:00 +5°C° 0 mm 3 mps 743 mmHg 66%
    07:00 +7°C° 0 mm 4 mps 743 mmHg 67%
    08:00 +8°C° 0 mm 4 mps 743 mmHg 68%
    09:00 +9°C° 0 mm 5 mps 743 mmHg 61%
    10:00 +12°C° 0 mm 5 mps 743 mmHg 54%
    11:00 +13°C° 0 mm 5 mps 743 mmHg 46%
    12:00 +14°C° 0 mm 5 mps 743 mmHg 43%
    13:00 +14°C° 0 mm 6 mps 742 mmHg 40%
    14:00 +15°C° 0 mm 6 mps 742 mmHg 37%
    15:00 +15°C° 0 mm 5 mps 742 mmHg 38%
    16:00 +15°C° 0 mm 5 mps 742 mmHg 38%
    17:00 +14°C° 0 mm 5 mps 741 mmHg 38%
    18:00 +13°C° 0 mm 4 mps 741 mmHg 43%
    19:00 +11°C° 0 mm 4 mps 741 mmHg 48%
    20:00 +9°C° 0 mm 3 mps 741 mmHg 53%
    21:00 +9°C° 0 mm 3 mps 741 mmHg 55%
    22:00 +8°C° 0 mm 3 mps 741 mmHg 58%
    23:00 +7°C° 0 mm 2 mps 741 mmHg 60%
    Show more